Location: Châteauvieux
(47.2310°N, 1.3828°E)
Time: 02:17:25
(UTC+00:00)

Spot 4 - Pass Details

Date: 15 May 2026
Orbit: 698 x 714 km, 98.2° (Epoch: 8 June)

Event Time Altitude Azimuth Distance (km) Brightness Sun altitude
Exits shadow 23:36:12 52° 239° (WSW) 879 4.1 -23.6°
Maximum altitude 23:36:37 54° 260° (W) 861 4.1 -23.6°
Drops below altitude 10° 23:41:20 10° 338° (NNW) 2,192 7.3 -23.7°
Sets 23:43:40 0° 343° (NNW) 3,118 8.4 -23.7°
